Regional Weather Roundup
Issued by NWS San Diego, CA

Home | Current Version | Previous Version | Text Only | Print | Product List | Glossary On
Versions: 1 2 3 4 5 6 7 8 9 10 11 12 13 14 15 16 17 18 19 20 21 22 23 24 25 26 27 28 29 30 31 32 33 34 35 36 37 38 39 40 41 42 43 44 45 46 47 48 49 50
000
ASUS46 KSGX 021911
RWRSGX

SAN DIEGO HOURLY WEATHER ROUNDUP
NATIONAL WEATHER SERVICE SAN DIEGO CA
1200 PM PDT WED SEP 02 2015

NOTE: "FAIR" INDICATES FEW OR NO CLOUDS BELOW 12,000 FEET WITH NO
SIGNIFICANT WEATHER AND/OR OBSTRUCTIONS TO VISIBILITY.

CAZ042-043-060-061-PZZ750-775-022000-

GREATER SAN DIEGO AREA

CITY           SKY/WX    TMP DP  RH WIND       PRES   REMARKS
LINDBERGH FLD  PTSUNNY   74  58  57 W9        29.98F
POINT LOMA       N/A     75  58  56 W10         N/A
NATIONAL CITY    N/A     75  62  64 SW9       29.98S
CHULA VISTA      N/A     75  63  66 W3        29.90F
IMPERIAL BEACH PTSUNNY   73  59  61 W12       29.98S
BROWN FIELD    SUNNY     77  59  53 W10       29.97F
MIRAMAR MCAS   MOSUNNY   80  57  45 W7        29.97F
MONTGOMERY FLD SUNNY     76  58  53 W12       29.97F

$$

NORTH SAN DIEGO COUNTY

CITY           SKY/WX    TMP DP  RH WIND       PRES   REMARKS
CAMP PENDLETON MOSUNNY   76  58  53 VRB7      29.96F
OCEANSIDE AP   SUNNY     76  59  55 SW9       29.96F
OCEANSIDE HBR    N/A     71  63  75 SW13      29.99F
VISTA            N/A     74  63  66 W3        29.94F
CARLSBAD       SUNNY     72  60  66 W9        29.96F
DEL MAR          N/A     73  62  67 W3        30.00F
LA JOLLA SCRIP   N/A    N/A N/A N/A SW5       29.94F
FALLBROOK        N/A     79  62  56 S7        29.95S
ESCONDIDO        N/A     81  63  54 NW3       29.96F
SAN MARCOS       N/A     75  63  66 CALM      29.94F
POWAY            N/A     82  60  47 SW3       29.96

$$

EAST SAN DIEGO COUNTY

CITY           SKY/WX    TMP DP  RH WIND       PRES   REMARKS
RAMONA         SUNNY     78  57  48 W9        29.98F
LA MESA          N/A     76  60  57 W3        29.89
JAMUL            N/A     78  62  58 W5        29.95F
DESCANSO N       N/A     80  48  33 W10       29.82F
CAMPO            N/A     81  40  23 SW12G18   29.98F

$$

ORANGE COUNTY AND THE LOS ANGELES BASIN

CITY           SKY/WX    TMP DP  RH WIND       PRES   REMARKS
JOHN WAYNE AP  MOSUNNY   75  60  59 S8G16     29.96F
LAGUNA BEACH     N/A     76  64  67 SE8       29.93S
LAKE FOREST FR   N/A     79  56  44 CALM      29.85F
SANTA ANA        N/A     81  64  55 SW6       29.91F
HUNTINGTON BCH   N/A     77  64  64 SW10      29.99F
LOS ALAMITOS   MOSUNNY   78  62  58 W10       29.96F
FULLERTON      SUNNY     78  60  53 SW9       29.95
L.A. AP        PTSUNNY   73  61  65 W14       29.97F
L.A. DOWNTOWN  SUNNY     79  60  52 CALM      29.95F

$$

THE INLAND EMPIRE

CITY           SKY/WX    TMP DP  RH WIND       PRES   REMARKS
CORONA         SUNNY     79  58  48 VRB3      29.96F
CHINO          MOSUNNY   80  57  45 VRB3      29.97F
ONTARIO        PTSUNNY   78  56  46 S6        29.97F
SAN BERNARDINO PTSUNNY   77  54  44 SW7       29.97F
RIVERSIDE AP   MOSUNNY   79  57  46 VRB7      29.96F
MORENO VALLEY    N/A     79  58  48 W2        29.95S
MARCH ARB      SUNNY     78  57  47 VRB6      29.97F
HORSETHIEF CYN   N/A     79  54  41 NE7       29.97F
PERRIS           N/A     79  57  46 W1        29.97F
MENIFEE          N/A     79  58  48 W6        30.02F
HEMET EAST       N/A     74  53  46 CALM      29.97S
FRENCH VALLEY  FAIR      77  57  50 CALM      29.98F
TEMECULA         N/A     78  58  50 SW6       29.93F

$$

SAN BERNARDINO AND RIVERSIDE COUNTY MOUNTAINS

CITY           SKY/WX    TMP DP  RH WIND       PRES   REMARKS
BIG BEAR AP    SUNNY     73  25  16 W7G17     30.20F
ANGELUS OAKS     N/A     71  38  29 CALM      29.82F
PINE COVE        N/A     76  29  18 S3        29.88F

$$

SOUTHERN DESERT INCLUDING THE COACHELLA VALLEY

CITY           SKY/WX    TMP DP  RH WIND       PRES   REMARKS
PALM SPRINGS   PTSUNNY   95  46  18 CALM      29.87F
THOUSAND PALMS   N/A     95  55  25 SE3       29.84F
PALM DESERT      N/A     97  51  20 CALM        N/A
THERMAL        SUNNY     95  59  30 S8        29.80F
BLYTHE         PTSUNNY   94  57  28 SE12G22   29.86F
IMPERIAL AP    MOSUNNY   98  48  18 N6        29.82F
EL CENTRO NAS  PTSUNNY   96  51  21 VRB5      29.84F
YUMA AZ        PTSUNNY   98  59  27 S14G20    29.84F HX  98
MEXICALI       PTSUNNY   95  55  26 E2        29.84F

$$

UPPER DESERT

CITY           SKY/WX    TMP DP  RH WIND       PRES   REMARKS
VICTORVILLE AP SUNNY     88  19   8 S16G22    29.98F
HESPERIA         N/A     85  31  14 SW15      29.96F
APPLE VALLEY     N/A     85  25  11 S10G20    30.01F
PALMDALE       SUNNY     83  37  19 N5        29.98F
LANCASTER      SUNNY     85  40  20 VRB3      29.97F
EDWARDS AFB    MOSUNNY   83  31  15 VRB2      29.95F
DAGGETT        MOSUNNY  N/A N/A N/A NW5       29.93F
29 PALMS N     PTSUNNY   94  47  20 SE14G20   29.98F
NEEDLES        MOSUNNY  100  46  16 S12       29.87F HX  96

$$

REGIONAL REPORTS

CITY           SKY/WX    TMP DP  RH WIND       PRES   REMARKS
SANTA BARBARA  MOSUNNY   76  61  59 VRB6      29.96F
SANDBERG       SUNNY     77  30  17 S16G23    30.10F
LAS VEGAS NV   PTSUNNY   95  47  19 S10G24    29.87F
PHOENIX AZ     PTSUNNY   95  56  26 VRB3      29.91F
TIJUANA        MOSUNNY   75  55  50 W8        29.99F
ENSENADA NW      N/A     73  32  22 W9        29.95S

$$

OFFSHORE ISLANDS

CITY           SKY/WX    TMP DP  RH WIND       PRES   REMARKS
CATALINA ARPT  CLOUDY    66  56  70 NW8       30.02S
SAN CLEMENTE I PTSUNNY   71  56  59 SW9       29.98S
SAN NICOLAS IS CLOUDY    70  55  59 W5        29.99F

$$

MARINE AND OFFSHORE BUOY REPORTS

STATION/POSITION SKY/WX   TEMP    WIND        PRES    SWELL
                          AIR SEA DIR/SP/G            HT/PER/DIR
                          (F)     (DEG/KT/KT) (MB)    (FT/S/D)
TANNER BANKS               67 69  290/  6/  8 1015.3F   5/240/11
S CLEMENTE BASIN           67 72  260/  6/ 10 1015.1F   5/210/11
SO. S. ROSA ISLA           65 66  310/  6/  8 1014.2    7/11
W. S. BARBARA CH           66 68  330/ 12/ 14 1014.2F   7/300/11
M. S. BARBARA CH           67 71  270/  8/  8 1015.0F
S. MONICA BASIN            66 70  230/  6/  8 1015.2F   3/190/11
S PEDRO CHANNEL               73                N/A     2/200/14
DANA POINT                    74                N/A     2/210/12
OCEANSIDE OFFSHR              74                N/A     3/220/11
TORREY PINES OTR              74                N/A     3/210/11
LA JOLLA 1                 69 74  240/  5/  8 1015.1S
MISSION BAY BUOY              74                N/A     3/210/11
SAN DIEGO BAY                 77              1015.7F
POINT LOMA SOUTH              73                N/A     3/220/11

$$




USA.gov is the U.S. government's official web portal to all federal, state and local government web resources and services.